| time (UTC) | temp C | wind direction | speed KPH | gust KPH | rain 1hr cm | rain 24hr cm | rain mn cm | humidity % | barometer mb |
| 20260503030638 | 12 | 331 | 0.0 | 0.0 | 0.00 | 0.00 | 0.00 | 65 | 1018.7 |
| 20260503030135 | 12 | 332 | 0.0 | 0.0 | 0.00 | 0.00 | 0.00 | 65 | 1018.5 |
| 20260503025632 | 12 | 331 | 0.0 | 0.0 | 0.00 | 0.00 | 0.00 | 65 | 1018.4 |
| 20260503025130 | 13 | 330 | 0.0 | 0.0 | 0.00 | 0.00 | 0.00 | 64 | 1018.5 |
| 20260503024626 | 13 | 330 | 0.0 | 0.0 | 0.00 | 0.00 | 0.00 | 63 | 1018.4 |
| 20260503024123 | 13 | 336 | 0.0 | 0.0 | 0.00 | 0.00 | 0.00 | 60 | 1018.4 |
| 20260503023621 | 14 | 336 | 0.0 | 0.0 | 0.00 | 0.00 | 0.00 | 60 | 1018.4 |
| 20260503023118 | 14 | 321 | 0.0 | 0.0 | 0.00 | 0.00 | 0.00 | 58 | 1018.3 |
| 20260503022613 | 15 | 329 | 0.0 | 0.0 | 0.00 | 0.00 | 0.00 | 58 | 1018.4 |
| 20260503022108 | 16 | 329 | 0.0 | 0.0 | 0.00 | 0.00 | 0.00 | 55 | 1018.2 |
| 20260503021606 | 16 | 331 | 0.0 | 0.0 | 0.00 | 0.00 | 0.00 | 51 | 1018.2 |
| 20260503021102 | 17 | 355 | 0.0 | 3.2 | 0.00 | 0.00 | 0.00 | 48 | 1018.1 |
| 20260503020559 | 17 | 335 | 0.0 | 8.0 | 0.00 | 0.00 | 0.00 | 42 | 1017.9 |
| 20260503020056 | 17 | 327 | 0.0 | 1.6 | 0.00 | 0.00 | 0.00 | 44 | 1017.8 |
| 20260503015553 | 18 | 315 | 1.6 | 3.2 | 0.00 | 0.00 | 0.00 | 41 | 1018.1 |
| 20260503015050 | 18 | 328 | 3.2 | 3.2 | 0.00 | 0.00 | 0.00 | 42 | 1017.6 |
| 20260503014546 | 18 | 315 | 3.2 | 8.0 | 0.00 | 0.00 | 0.00 | 40 | 1017.9 |
| 20260503014044 | 19 | 323 | 1.6 | 3.2 | 0.00 | 0.00 | 0.00 | 37 | 1017.6 |
| 20260503013541 | 20 | 327 | 1.6 | 1.6 | 0.00 | 0.00 | 0.00 | 40 | 1017.7 |
| 20260503013039 | 21 | 310 | 0.0 | 3.2 | 0.00 | 0.00 | 0.00 | 37 | 1017.8 |
| 20260503012536 | 21 | 27 | 6.4 | 8.0 | 0.00 | 0.00 | 0.00 | 33 | 1017.7 |
| 20260503012032 | 22 | 325 | 0.0 | 0.0 | 0.00 | 0.00 | 0.00 | 38 | 1017.8 |
| 20260503011529 | 22 | 316 | 1.6 | 4.8 | 0.00 | 0.00 | 0.00 | 34 | 1017.9 |
| 20260503011026 | 22 | 329 | 0.0 | 8.0 | 0.00 | 0.00 | 0.00 | 30 | 1017.7 |
| 20260503010522 | 22 | 326 | 0.0 | 4.8 | 0.00 | 0.00 | 0.00 | 33 | 1017.6 |
| 20260503010020 | 22 | 325 | 0.0 | 3.2 | 0.00 | 0.00 | 0.00 | 34 | 1017.7 |
| 20260503005517 | 22 | 2 | 3.2 | 9.7 | 0.00 | 0.00 | 0.00 | 26 | 1017.8 |
| 20260503005014 | 22 | 326 | 1.6 | 3.2 | 0.00 | 0.00 | 0.00 | 32 | 1017.8 |
| 20260503004510 | 22 | 350 | 0.0 | 1.6 | 0.00 | 0.00 | 0.00 | 26 | 1017.9 |
| 20260503004009 | 22 | 353 | 3.2 | 9.7 | 0.00 | 0.00 | 0.00 | 26 | 1018.2 |
| 20260503003505 | 22 | 329 | 0.0 | 1.6 | 0.00 | 0.00 | 0.00 | 30 | 1018.1 |
| 20260503003002 | 22 | 331 | 1.6 | 4.8 | 0.00 | 0.00 | 0.00 | 30 | 1018.1 |
| 20260503002459 | 22 | 305 | 1.6 | 3.2 | 0.00 | 0.00 | 0.00 | 27 | 1017.9 |
| 20260503001955 | 22 | 317 | 1.6 | 1.6 | 0.00 | 0.00 | 0.00 | 34 | 1018.1 |
| 20260503001452 | 22 | 358 | 0.0 | 0.0 | 0.00 | 0.00 | 0.00 | 28 | 1018.1 |
| 20260503000949 | 22 | 333 | 3.2 | 4.8 | 0.00 | 0.00 | 0.00 | 24 | 1018.3 |
| 20260503000446 | 22 | 306 | 0.0 | 1.6 | 0.00 | 0.00 | 0.00 | 26 | 1018.1 |
| 20260502235944 | 22 | 323 | 3.2 | 8.0 | 0.00 | 0.00 | 0.00 | 24 | 1018.2 |
| 20260502235440 | 22 | 8 | 3.2 | 4.8 | 0.00 | 0.00 | 0.00 | 25 | 1018.1 |
| 20260502234938 | 23 | 326 | 0.0 | 8.0 | 0.00 | 0.00 | 0.00 | 25 | 1018.1 |
| 20260502234434 | 23 | 312 | 6.4 | 9.7 | 0.00 | 0.00 | 0.00 | 25 | 1018.2 |
| 20260502233932 | 23 | 325 | 1.6 | 3.2 | 0.00 | 0.00 | 0.00 | 24 | 1018.3 |
| 20260502233426 | 22 | 320 | 1.6 | 4.8 | 0.00 | 0.00 | 0.00 | 23 | 1018.4 |
| 20260502232924 | 20 | 321 | 1.6 | 4.8 | 0.00 | 0.00 | 0.00 | 30 | 1018.3 |
| 20260502232420 | 19 | 288 | 3.2 | 4.8 | 0.00 | 0.00 | 0.00 | 36 | 1018.4 |
| 20260502231918 | 19 | 319 | 0.0 | 1.6 | 0.00 | 0.00 | 0.00 | 39 | 1018.5 |
| 20260502231415 | 21 | 309 | 3.2 | 3.2 | 0.00 | 0.00 | 0.00 | 41 | 1018.6 |
| 20260502230913 | 21 | 332 | 0.0 | 0.0 | 0.00 | 0.00 | 0.00 | 26 | 1018.7 |
| 20260502230411 | 21 | 325 | 0.0 | 3.2 | 0.00 | 0.00 | 0.00 | 25 | 1018.7 |
| 20260502225908 | 22 | 313 | 8.0 | 12.9 | 0.00 | 0.00 | 0.00 | 24 | 1018.7 |
| 20260502225404 | 21 | 326 | 0.0 | 0.0 | 0.00 | 0.00 | 0.00 | 26 | 1018.7 |
| 20260502224901 | 22 | 331 | 0.0 | 3.2 | 0.00 | 0.00 | 0.00 | 27 | 1018.9 |
| 20260502224357 | 22 | 314 | 1.6 | 3.2 | 0.00 | 0.00 | 0.00 | 25 | 1018.8 |
| 20260502223855 | 23 | 325 | 0.0 | 3.2 | 0.00 | 0.00 | 0.00 | 25 | 1019.1 |
| 20260502223352 | 23 | 335 | 3.2 | 3.2 | 0.00 | 0.00 | 0.00 | 25 | 1019.1 |
| 20260502222850 | 23 | 325 | 1.6 | 9.7 | 0.00 | 0.00 | 0.00 | 24 | 1018.9 |
| 20260502222348 | 22 | 349 | 6.4 | 8.0 | 0.00 | 0.00 | 0.00 | 22 | 1019.3 |
| 20260502221843 | 23 | 345 | 1.6 | 9.7 | 0.00 | 0.00 | 0.00 | 25 | 1019.1 |
| 20260502221339 | 23 | 299 | 6.4 | 9.7 | 0.00 | 0.00 | 0.00 | 23 | 1019.2 |
| 20260502220837 | 23 | 359 | 3.2 | 8.0 | 0.00 | 0.00 | 0.00 | 24 | 1019.3 |
| 20260502220332 | 22 | 326 | 4.8 | 8.0 | 0.00 | 0.00 | 0.00 | 23 | 1019.4 |
| 20260502215829 | 23 | 306 | 1.6 | 17.7 | 0.00 | 0.00 | 0.00 | 25 | 1019.3 |
| 20260502215327 | 23 | 286 | 4.8 | 9.7 | 0.00 | 0.00 | 0.00 | 24 | 1019.5 |
| 20260502214824 | 23 | 0 | 8.0 | 11.3 | 0.00 | 0.00 | 0.00 | 24 | 1019.6 |
| 20260502214320 | 22 | 353 | 0.0 | 4.8 | 0.00 | 0.00 | 0.00 | 27 | 1019.6 |
| 20260502213817 | 22 | 17 | 8.0 | 9.7 | 0.00 | 0.00 | 0.00 | 23 | 1019.6 |
| 20260502213314 | 23 | 339 | 4.8 | 8.0 | 0.00 | 0.00 | 0.00 | 24 | 1019.7 |
| 20260502212814 | 23 | 345 | 9.7 | 12.9 | 0.00 | 0.00 | 0.00 | 24 | 1019.8 |
| 20260502212311 | 23 | 332 | 1.6 | 4.8 | 0.00 | 0.00 | 0.00 | 25 | 1020.1 |
| 20260502211808 | 23 | 348 | 4.8 | 12.9 | 0.00 | 0.00 | 0.00 | 25 | 1020.1 |
| 20260502211304 | 22 | 291 | 4.8 | 8.0 | 0.00 | 0.00 | 0.00 | 24 | 1020.1 |
| 20260502210801 | 22 | 30 | 3.2 | 9.7 | 0.00 | 0.00 | 0.00 | 23 | 1020.2 |
| 20260502210259 | 22 | 15 | 6.4 | 11.3 | 0.00 | 0.00 | 0.00 | 25 | 1019.9 |
| 20260502205756 | 22 | 7 | 3.2 | 14.5 | 0.00 | 0.00 | 0.00 | 26 | 1020.1 |
| 20260502205251 | 22 | 351 | 1.6 | 12.9 | 0.00 | 0.00 | 0.00 | 24 | 1020.3 |
| 20260502204749 | 22 | 351 | 6.4 | 8.0 | 0.00 | 0.00 | 0.00 | 24 | 1019.8 |
| 20260502204246 | 22 | 344 | 0.0 | 4.8 | 0.00 | 0.00 | 0.00 | 26 | 1020.2 |
| 20260502203744 | 23 | 286 | 0.0 | 8.0 | 0.00 | 0.00 | 0.00 | 24 | 1020.3 |
| 20260502203242 | 22 | 288 | 1.6 | 12.9 | 0.00 | 0.00 | 0.00 | 25 | 1020.5 |
| 20260502202735 | 22 | 345 | 4.8 | 11.3 | 0.00 | 0.00 | 0.00 | 24 | 1020.3 |
| 20260502202234 | 21 | 10 | 6.4 | 12.9 | 0.00 | 0.00 | 0.00 | 25 | 1020.3 |
| 20260502201731 | 22 | 344 | 1.6 | 12.9 | 0.00 | 0.00 | 0.00 | 25 | 1020.5 |
| 20260502201227 | 22 | 335 | 4.8 | 12.9 | 0.00 | 0.00 | 0.00 | 26 | 1020.4 |
| 20260502200723 | 22 | 337 | 8.0 | 14.5 | 0.00 | 0.00 | 0.00 | 25 | 1020.4 |
| 20260502200220 | 22 | 347 | 0.0 | 8.0 | 0.00 | 0.00 | 0.00 | 27 | 1020.3 |
| 20260502195719 | 22 | 334 | 3.2 | 9.7 | 0.00 | 0.00 | 0.00 | 25 | 1020.6 |
| 20260502195215 | 21 | 16 | 8.0 | 11.3 | 0.00 | 0.00 | 0.00 | 26 | 1020.5 |
| 20260502194711 | 21 | 352 | 4.8 | 12.9 | 0.00 | 0.00 | 0.00 | 25 | 1020.5 |
| 20260502194209 | 21 | 321 | 3.2 | 14.5 | 0.00 | 0.00 | 0.00 | 25 | 1020.6 |
| 20260502193704 | 22 | 354 | 4.8 | 8.0 | 0.00 | 0.00 | 0.00 | 25 | 1020.8 |
| 20260502193202 | 21 | 10 | 11.3 | 16.1 | 0.00 | 0.00 | 0.00 | 24 | 1020.7 |
| 20260502192656 | 21 | 3 | 3.2 | 9.7 | 0.00 | 0.00 | 0.00 | 26 | 1020.8 |
| 20260502192154 | 21 | 339 | 1.6 | 8.0 | 0.00 | 0.00 | 0.00 | 28 | 1020.9 |
| 20260502191651 | 20 | 338 | 8.0 | 11.3 | 0.00 | 0.00 | 0.00 | 30 | 1020.9 |
| 20260502191149 | 21 | 351 | 8.0 | 11.3 | 0.00 | 0.00 | 0.00 | 25 | 1021.1 |
| 20260502190646 | 20 | 359 | 3.2 | 4.8 | 0.00 | 0.00 | 0.00 | 29 | 1021.1 |
| 20260502190139 | 21 | 347 | 6.4 | 14.5 | 0.00 | 0.00 | 0.00 | 29 | 1021.2 |
| 20260502185638 | 21 | 325 | 4.8 | 9.7 | 0.00 | 0.00 | 0.00 | 32 | 1021.4 |
| 20260502185135 | 21 | 325 | 3.2 | 11.3 | 0.00 | 0.00 | 0.00 | 31 | 1021.1 |
| 20260502184631 | 21 | 324 | 4.8 | 4.8 | 0.00 | 0.00 | 0.00 | 31 | 1021.5 |
| 20260502184127 | 21 | 294 | 8.0 | 12.9 | 0.00 | 0.00 | 0.00 | 28 | 1021.4 |
| 20260502183623 | 21 | 344 | 0.0 | 12.9 | 0.00 | 0.00 | 0.00 | 30 | 1021.4 |
| 20260502183120 | 20 | 335 | 4.8 | 8.0 | 0.00 | 0.00 | 0.00 | 32 | 1021.7 |
| 20260502182615 | 20 | 301 | 6.4 | 11.3 | 0.00 | 0.00 | 0.00 | 34 | 1021.6 |
| 20260502182111 | 20 | 329 | 6.4 | 8.0 | 0.00 | 0.00 | 0.00 | 35 | 1021.8 |
| 20260502181609 | 19 | 336 | 1.6 | 4.8 | 0.00 | 0.00 | 0.00 | 39 | 1021.8 |
| 20260502181108 | 18 | 333 | 1.6 | 9.7 | 0.00 | 0.00 | 0.00 | 40 | 1021.8 |
| 20260502180604 | 18 | 313 | 4.8 | 12.9 | 0.00 | 0.00 | 0.00 | 38 | 1022.1 |
| 20260502170517 | 16 | 326 | 4.8 | 9.7 | 0.00 | 0.00 | 0.00 | 41 | 1022.5 |
| 20260502163956 | 15 | 332 | 0.0 | 4.8 | 0.00 | 0.00 | 0.00 | 44 | 1022.8 |
| 20260502163451 | 15 | 334 | 3.2 | 4.8 | 0.00 | 0.00 | 0.00 | 46 | 1022.7 |
| 20260502162949 | 14 | 337 | 1.6 | 3.2 | 0.00 | 0.00 | 0.00 | 49 | 1022.6 |
| 20260502162446 | 13 | 312 | 8.0 | 11.3 | 0.00 | 0.00 | 0.00 | 48 | 1022.7 |
| 20260502161943 | 13 | 332 | 0.0 | 8.0 | 0.00 | 0.00 | 0.00 | 49 | 1022.8 |
| 20260502161439 | 13 | 340 | 1.6 | 4.8 | 0.00 | 0.00 | 0.00 | 55 | 1023.1 |
| 20260502160937 | 12 | 324 | 4.8 | 4.8 | 0.00 | 0.00 | 0.00 | 52 | 1022.8 |
| 20260502160435 | 12 | 344 | 0.0 | 4.8 | 0.00 | 0.00 | 0.00 | 54 | 1023.2 |
| 20260502151918 | 9 | 352 | 0.0 | 0.0 | 0.00 | 0.00 | 0.00 | 63 | 1023.3 |
| 20260502151415 | 8 | 353 | 0.0 | 0.0 | 0.00 | 0.00 | 0.00 | 71 | 1023.3 |
| 20260502150912 | 8 | 356 | 0.0 | 1.6 | 0.00 | 0.00 | 0.00 | 68 | 1023.4 |
| 20260502150408 | 8 | 338 | 0.0 | 1.6 | 0.00 | 0.00 | 0.00 | 66 | 1023.4 |
| 20260502130255 | -1 | 342 | 0.0 | 0.0 | 0.00 | 0.00 | 0.00 | 99 | 1023.6 |
| 20260502123740 | -1 | 342 | 0.0 | 0.0 | 0.00 | 0.00 | 0.00 | 99 | 1023.6 |
| 20260502123237 | -1 | 342 | 0.0 | 0.0 | 0.00 | 0.00 | 0.00 | 99 | 1023.5 |
| 20260502122734 | -1 | 342 | 0.0 | 0.0 | 0.00 | 0.00 | 0.00 | 99 | 1023.4 |
| 20260502122230 | -1 | 342 | 0.0 | 0.0 | 0.00 | 0.00 | 0.00 | 99 | 1023.4 |
| 20260502121728 | -1 | 342 | 0.0 | 0.0 | 0.00 | 0.00 | 0.00 | 99 | 1023.4 |
| 20260502121226 | -1 | 342 | 0.0 | 0.0 | 0.00 | 0.00 | 0.00 | 99 | 1023.4 |
| 20260502120722 | -1 | 342 | 0.0 | 0.0 | 0.00 | 0.00 | 0.00 | 99 | 1023.4 |
| 20260502120219 | -1 | 342 | 0.0 | 0.0 | 0.00 | 0.00 | 0.00 | 99 | 1023.4 |
| 20260502115717 | -1 | 342 | 0.0 | 0.0 | 0.00 | 0.00 | 0.00 | 99 | 1023.4 |
| 20260502115213 | -1 | 342 | 0.0 | 0.0 | 0.00 | 0.00 | 0.00 | 99 | 1023.5 |
| 20260502114709 | -1 | 342 | 0.0 | 0.0 | 0.00 | 0.00 | 0.00 | 98 | 1023.4 |
| 20260502114207 | -1 | 342 | 0.0 | 0.0 | 0.00 | 0.00 | 0.00 | 98 | 1023.4 |
| 20260502113703 | -1 | 342 | 0.0 | 0.0 | 0.00 | 0.00 | 0.00 | 98 | 1023.5 |
| 20260502113201 | -1 | 341 | 0.0 | 0.0 | 0.00 | 0.00 | 0.00 | 98 | 1023.3 |
| 20260502112659 | -1 | 342 | 0.0 | 0.0 | 0.00 | 0.00 | 0.00 | 98 | 1023.4 |
| 20260502112156 | -1 | 342 | 0.0 | 0.0 | 0.00 | 0.00 | 0.00 | 98 | 1023.4 |
| 20260502111654 | -1 | 342 | 0.0 | 0.0 | 0.00 | 0.00 | 0.00 | 98 | 1023.4 |
| 20260502111151 | -1 | 342 | 0.0 | 0.0 | 0.00 | 0.00 | 0.00 | 98 | 1023.4 |
| 20260502110649 | -1 | 342 | 0.0 | 0.0 | 0.00 | 0.00 | 0.00 | 98 | 1023.4 |
| 20260502110146 | -1 | 341 | 0.0 | 0.0 | 0.00 | 0.00 | 0.00 | 98 | 1023.3 |
| 20260502105643 | -1 | 342 | 0.0 | 0.0 | 0.00 | 0.00 | 0.00 | 98 | 1023.4 |
| 20260502105140 | -1 | 342 | 0.0 | 0.0 | 0.00 | 0.00 | 0.00 | 98 | 1023.3 |
| 20260502104637 | 0 | 342 | 0.0 | 0.0 | 0.00 | 0.00 | 0.00 | 98 | 1023.3 |
| 20260502104135 | 0 | 342 | 0.0 | 0.0 | 0.00 | 0.00 | 0.00 | 98 | 1023.5 |
| 20260502103632 | 0 | 342 | 0.0 | 0.0 | 0.00 | 0.00 | 0.00 | 98 | 1023.3 |
| 20260502103130 | 0 | 342 | 0.0 | 0.0 | 0.00 | 0.00 | 0.00 | 97 | 1023.2 |
| 20260502102627 | 0 | 342 | 0.0 | 0.0 | 0.00 | 0.00 | 0.00 | 97 | 1023.1 |
| 20260502102123 | 0 | 342 | 0.0 | 0.0 | 0.00 | 0.00 | 0.00 | 97 | 1023.3 |
| 20260502101621 | 0 | 342 | 0.0 | 0.0 | 0.00 | 0.00 | 0.00 | 97 | 1023.2 |
| 20260502101120 | 0 | 341 | 0.0 | 0.0 | 0.00 | 0.00 | 0.00 | 97 | 1023.3 |
| 20260502100618 | 0 | 341 | 0.0 | 0.0 | 0.00 | 0.00 | 0.00 | 97 | 1023.0 |
| 20260502100116 | 0 | 342 | 0.0 | 0.0 | 0.00 | 0.00 | 0.00 | 97 | 1023.3 |
| 20260502091049 | 0 | 342 | 0.0 | 0.0 | 0.00 | 0.00 | 0.00 | 95 | 1023.0 |
| 20260502090546 | 0 | 342 | 0.0 | 0.0 | 0.00 | 0.00 | 0.00 | 95 | 1023.0 |
| 20260502071446 | 2 | 342 | 0.0 | 0.0 | 0.00 | 0.00 | 0.00 | 91 | 1023.2 |
| 20260502070944 | 2 | 342 | 0.0 | 0.0 | 0.00 | 0.00 | 0.00 | 90 | 1023.1 |
| 20260502070442 | 2 | 341 | 0.0 | 0.0 | 0.00 | 0.00 | 0.00 | 90 | 1023.0 |
| 20260502065940 | 2 | 341 | 0.0 | 0.0 | 0.00 | 0.00 | 0.00 | 90 | 1023.0 |
| 20260502065439 | 2 | 341 | 0.0 | 0.0 | 0.00 | 0.00 | 0.00 | 90 | 1023.0 |
| 20260502064936 | 2 | 342 | 0.0 | 0.0 | 0.00 | 0.00 | 0.00 | 89 | 1023.1 |
| 20260502064434 | 2 | 340 | 0.0 | 0.0 | 0.00 | 0.00 | 0.00 | 89 | 1022.7 |
| 20260502063931 | 3 | 340 | 0.0 | 0.0 | 0.00 | 0.00 | 0.00 | 88 | 1022.7 |
| 20260502063428 | 3 | 340 | 0.0 | 0.0 | 0.00 | 0.00 | 0.00 | 88 | 1022.8 |
| 20260502062926 | 3 | 340 | 0.0 | 0.0 | 0.00 | 0.00 | 0.00 | 87 | 1022.7 |
| 20260502062423 | 3 | 339 | 0.0 | 0.0 | 0.00 | 0.00 | 0.00 | 87 | 1022.7 |
| 20260502061922 | 3 | 342 | 0.0 | 0.0 | 0.00 | 0.00 | 0.00 | 88 | 1022.6 |
| 20260502061419 | 3 | 342 | 0.0 | 0.0 | 0.00 | 0.00 | 0.00 | 88 | 1022.7 |
| 20260502060915 | 3 | 342 | 0.0 | 0.0 | 0.00 | 0.00 | 0.00 | 88 | 1022.6 |
| 20260502060410 | 3 | 342 | 0.0 | 0.0 | 0.00 | 0.00 | 0.00 | 87 | 1022.5 |
| 20260502055908 | 3 | 342 | 0.0 | 0.0 | 0.00 | 0.00 | 0.00 | 87 | 1022.5 |
| 20260502055405 | 3 | 342 | 0.0 | 0.0 | 0.00 | 0.00 | 0.00 | 86 | 1022.4 |
| 20260502054900 | 3 | 342 | 0.0 | 0.0 | 0.00 | 0.00 | 0.00 | 86 | 1022.5 |
| 20260502054357 | 4 | 342 | 0.0 | 0.0 | 0.00 | 0.00 | 0.00 | 85 | 1022.5 |
| 20260502053855 | 4 | 342 | 0.0 | 0.0 | 0.00 | 0.00 | 0.00 | 85 | 1022.4 |
| 20260502053352 | 4 | 342 | 0.0 | 0.0 | 0.00 | 0.00 | 0.00 | 85 | 1022.6 |
| 20260502052849 | 5 | 342 | 0.0 | 0.0 | 0.00 | 0.00 | 0.00 | 85 | 1022.2 |
| 20260502052347 | 5 | 342 | 0.0 | 0.0 | 0.00 | 0.00 | 0.00 | 83 | 1022.3 |
| 20260502051844 | 5 | 342 | 0.0 | 0.0 | 0.00 | 0.00 | 0.00 | 85 | 1022.4 |
| 20260502051343 | 5 | 342 | 0.0 | 0.0 | 0.00 | 0.00 | 0.00 | 85 | 1022.3 |
| 20260502050838 | 5 | 342 | 0.0 | 0.0 | 0.00 | 0.00 | 0.00 | 83 | 1022.2 |
| 20260502050335 | 5 | 342 | 0.0 | 0.0 | 0.00 | 0.00 | 0.00 | 83 | 1022.3 |
| 20260502045832 | 5 | 342 | 0.0 | 0.0 | 0.00 | 0.00 | 0.00 | 83 | 1022.2 |
| 20260502045329 | 5 | 342 | 0.0 | 0.0 | 0.00 | 0.00 | 0.00 | 83 | 1022.3 |
| 20260502044826 | 5 | 342 | 0.0 | 0.0 | 0.00 | 0.00 | 0.00 | 81 | 1022.2 |
| 20260502044322 | 6 | 342 | 0.0 | 0.0 | 0.00 | 0.00 | 0.00 | 81 | 1022.2 |
| 20260502043819 | 6 | 342 | 0.0 | 0.0 | 0.00 | 0.00 | 0.00 | 82 | 1021.8 |
| 20260502043317 | 6 | 342 | 0.0 | 0.0 | 0.00 | 0.00 | 0.00 | 81 | 1022.1 |
| 20260502042816 | 6 | 342 | 0.0 | 0.0 | 0.00 | 0.00 | 0.00 | 81 | 1021.8 |
| 20260502042314 | 6 | 342 | 0.0 | 0.0 | 0.00 | 0.00 | 0.00 | 81 | 1022.1 |
| 20260502041811 | 6 | 342 | 0.0 | 0.0 | 0.00 | 0.00 | 0.00 | 80 | 1022.0 |
| 20260502041308 | 6 | 342 | 0.0 | 0.0 | 0.00 | 0.00 | 0.00 | 79 | 1022.1 |
| 20260502040805 | 6 | 342 | 0.0 | 0.0 | 0.00 | 0.00 | 0.00 | 79 | 1021.8 |
| 20260502040302 | 6 | 342 | 0.0 | 0.0 | 0.00 | 0.00 | 0.00 | 78 | 1021.7 |
| 20260502035758 | 7 | 342 | 0.0 | 0.0 | 0.00 | 0.00 | 0.00 | 78 | 1022.0 |
| 20260502035255 | 7 | 342 | 0.0 | 0.0 | 0.00 | 0.00 | 0.00 | 79 | 1021.7 |
| 20260502034752 | 7 | 343 | 0.0 | 0.0 | 0.00 | 0.00 | 0.00 | 76 | 1021.6 |
| 20260502034251 | 7 | 343 | 0.0 | 0.0 | 0.00 | 0.00 | 0.00 | 75 | 1021.6 |
| 20260502033749 | 7 | 341 | 0.0 | 0.0 | 0.00 | 0.00 | 0.00 | 73 | 1021.3 |
| 20260502033246 | 7 | 340 | 0.0 | 0.0 | 0.00 | 0.00 | 0.00 | 72 | 1021.5 |
| 20260502032742 | 8 | 336 | 0.0 | 0.0 | 0.00 | 0.00 | 0.00 | 72 | 1021.4 |
| 20260502032238 | 8 | 338 | 0.0 | 0.0 | 0.00 | 0.00 | 0.00 | 71 | 1021.3 |
| 20260502031737 | 8 | 338 | 0.0 | 0.0 | 0.00 | 0.00 | 0.00 | 69 | 1021.3 |
| 20260502031234 | 8 | 338 | 0.0 | 0.0 | 0.00 | 0.00 | 0.00 | 68 | 1021.3 |